Tracking 19170 objects as of 22-May-2018
HD Live streaming from Space Station
objects crossing your sky now

FENGYUN 1C DEB

Track FENGYUN 1C DEB now!
10-day predictions


NORAD ID: 30224
Int'l Code: 1999-025WH
Perigee: 860.0 km
Apogee: 1,027.4 km
Inclination: 99.4 °
Period: 103.8 minutes
Semi major axis: 7314 km
RCS: 0.0474 m2 (small)
Launch date: May 10, 1999
Source: People's Republic of China (PRC)
Launch site: Taiyaun Space Center, China (TSC)

Note: This is SATELLITE DEBRIS
aabbcc
Your satellite tracking list
Your tracking list is empty




NASA's NSSDC Master Catalog

Two Line Element Set (TLE):
1 30224U 99025WH  18142.44193698  .00000116  00000-0  12858-3 0  9991
2 30224  99.3693  95.5141 0114422 150.8887 327.2279 13.87737120574375
Source of the keplerian elements: AFSPC